Location: Phoenix
(33.4480°N, 112.0730°W)
Time: 23:41:20
(UTC-07:00)

ISS - All Passes

Search period start: 09 February 2016 00:00
Search period end: 19 February 2016 00:00
Orbit: 398 x 408 km, 51.6° (Epoch: 09 February)

Date Brightness Start Highest point End Pass type
(mag) Time Alt. Az. Time Alt. Az. Time Alt. Az.
09 Feb - 00:49:17 10° W 00:51:23 16° SW 00:53:29 10° SSW night (unlit)
09 Feb - 15:48:32 10° SW 15:51:46 76° NW 15:55:00 10° NE daylight
09 Feb - 22:20:03 10° NNW 22:22:24 18° NNE 22:24:46 10° E night (unlit)
09 Feb - 23:55:56 10° WNW 23:58:56 35° SW 00:01:54 10° SSE night (unlit)
10 Feb - 14:56:05 10° SSW 14:59:11 44° SE 15:02:18 10° ENE daylight
10 Feb - 16:33:40 10° WNW 16:35:47 16° NNW 16:37:55 10° N daylight
10 Feb - 21:28:26 10° N 21:29:32 11° NNE 21:30:38 10° NE night (unlit)
10 Feb - 23:03:08 10° NW 23:06:22 85° SW 23:09:35 10° SE night (unlit)
11 Feb - 14:04:12 10° S 14:06:40 20° SE 14:09:08 10° E daylight
11 Feb - 15:40:07 10° W 15:42:58 28° NW 15:45:50 10° NNE daylight
11 Feb - 22:10:35 10° NNW 22:13:42 42° NE 22:16:46 10° ESE night (unlit)
11 Feb - 23:48:18 10° W 23:49:49 13° SW 23:51:20 10° SSW night (unlit)
12 Feb - 14:47:01 10° WSW 14:50:13 58° NW 14:53:26 10° NE daylight
12 Feb - 21:18:18 10° NNW 21:20:54 22° NE 21:23:30 10° E night (unlit)
12 Feb - 22:54:31 10° WNW 22:57:19 27° SW 23:00:07 10° S night (unlit)
13 Feb - 13:54:21 10° SSW 13:57:32 58° SE 14:00:45 10° NE daylight
13 Feb - 15:32:27 10° WNW 15:34:14 14° NNW 15:36:01 10° N daylight
13 Feb - 20:26:22 10° N 20:27:58 13° NNE 20:29:35 10° ENE visible
13 Feb - 22:01:31 10° NW 22:04:42 65° SW 22:07:54 10° SE night (unlit)
14 Feb - 13:02:11 10° S 13:04:55 25° SE 13:07:40 10° ENE daylight
14 Feb - 14:38:37 10° W 14:41:19 23° NW 14:44:00 10° NNE daylight
14 Feb - 21:08:49 10° NW 21:12:00 53° NE 21:15:09 10° ESE night (unlit)
15 Feb - 12:11:07 10° SSE 12:12:21 12° SE 12:13:36 10° ESE daylight
15 Feb - 13:45:19 10° WSW 13:48:28 46° NW 13:51:37 10° NE daylight
15 Feb - 20:16:21 10° NNW 20:19:09 26° NE 20:21:56 10° E visible
15 Feb - 21:52:56 10° WNW 21:55:29 22° SW 21:58:02 10° S night (unlit)
16 Feb - 12:52:26 10° SW 12:55:41 77° SE 12:58:55 10° NE daylight
16 Feb - 14:31:07 10° NW 14:32:28 12° NNW 14:33:49 10° N daylight
16 Feb - 19:24:12 10° N 19:26:12 15° NNE 19:28:11 10° ENE visible
16 Feb - 20:59:41 10° WNW 21:02:49 49° SW 21:05:57 10° SSE visible
17 Feb - 12:00:01 10° SSW 12:02:58 32° SE 12:05:55 10° ENE daylight
17 Feb - 13:36:57 10° W 13:39:26 20° NW 13:41:56 10° NNE daylight
17 Feb - 20:06:51 10° NW 20:10:03 68° NE 20:13:16 10° SE visible
18 Feb - 11:08:23 10° SSE 11:10:18 15° SE 11:12:14 10° E daylight
18 Feb - 12:43:26 10° WSW 12:46:29 37° NW 12:49:33 10° NNE daylight
18 Feb - 19:14:14 10° NNW 19:17:11 31° NE 19:20:06 10° ESE visible
18 Feb - 20:51:12 10° W 20:53:25 17° SW 20:55:37 10° S visible
